SL-14 R/B

Satellite information

Favourite Embed

Satellite Type and Status

ROCKET BODYIN ORBIT

Key statistics

Satellite SL-14 R/B at a glance.

Uptime

17177

Days in orbit

Revolutions

≈ 14.9

Per day

Orbit

LEO

Low Earth Orbit

Inclination

82.5

Latest

Satellite identification and parameters

Extended collection of information and parameters for SL-14 R/B.

Object identification

Identified? True

Debris? False

Object name: SL-14 R/B

International designator: 1978-067B

Object number (NORAD): 10974

Object ID (CCSDS): 10974

Country: COMMONWEALTH OF INDEPENDENT STATES (CIS)

Current information (Y/N): Y

RCS size: LARGE

Orbital parameters

Period: 96.667 minutes

Inclination: 82.4808 deg

SMA: 6977.178 km

Apoapsis: 609.724 km

Periapsis: 588.361 km

RAAN: 259.8373 deg

Eccentricy: 0.0015309

Argument of periapsis: 307.0686 deg

Mean anomaly: 52.9131 deg

Mean motion: 14.89646064 rev/day

Mean motion (dot): 0.00000342 rev/day2

B* drag term: 0.000033125 1/REarth

Two-line elements (TLE)

Creation date: July 8, 2025, 2:27 a.m.

Reference frame: TEME

Reference center: EARTH

Epoch: July 7, 2025, 10:10 p.m. UTC

TLE line 0: 0 SL-14 R/B

TLE line 1: 1 10974U 78067B 25188.92402789 .00000342 00000-0 33125-4 0 9991

TLE line 2: 2 10974 82.4808 259.8373 0015309 307.0686 52.9131 14.89646064523962

Live tracking on map

Real-time ground track for satellite SL-14 R/B.

In-orbit conjunctions

A list of the most updated potential collisions computed for object SL-14 R/B.

Target Orbit TCA Probability of collision Miss distance Type
DELTA 1 DEB SSO 2024-11-13 01:10:15 0.0001845294 933.0 (m) DEBRIS
FENGYUN 1C DEB SSO 2024-10-06 15:46:39 0.0001576827 327.0 (m) DEBRIS
FENGYUN 1C DEB SSO 2024-10-05 19:43:22 0.0001067159 882.0 (m) DEBRIS

Associated space launch

Early warning satellite

SL-14 R/B was lifted into orbit during the mission ‘Molniya-M | US-K 9’, on board a Molniya-M space rocket.

The launch took place on June 28, 1978, 2:58 a.m. from 43/3 (43L).

For more information about the launch, click the button.

Launch to space Molniya-M | US-K 9
Molniya-M | US-K 9

Agency: N/A

Status: Launch Successful

Launch date: June 28, 1978, 2:58 a.m. UTC

Rocket: Molniya-M

Launch pad: 43/3 (43L)

Location: Plesetsk Cosmodrome, Russian Federation

...

Latest news about this satellite

There are no fresh news available about this satellite. Check back as we update our databases every day.


Newsletter sign-up

Weekly statistics, charts and insights to help you stay on top of the space industry.